Location: Kitchener
(43.4500°N, 80.5000°W)
Time: 10:13:38
(UTC-04:00)

ATLAS 5 CENTAUR R/B - Visible Passes

Search period start: 22 September 2014 00:00
Search period end: 02 October 2014 00:00
Orbit: 715 x 947 km, 63.4° (Epoch: 17 September)

Date Brightness Start Highest point End Pass type
(mag) Time Alt. Az. Time Alt. Az. Time Alt. Az.
22 Sep 5.1 00:44:33 10° N 00:46:02 11° NNE 00:46:41 11° NNE visible
22 Sep 5.0 02:28:00 10° NNW 02:28:10 11° NNW 02:28:10 11° NNW visible
22 Sep 4.4 04:23:29 15° SSE 04:23:29 15° SSE 04:24:29 10° SSE visible
22 Sep 3.8 20:48:34 10° WSW 20:53:14 31° NW 20:58:10 10° NNE visible
22 Sep 5.0 22:37:58 10° NW 22:39:52 12° NNW 22:41:47 10° N visible
23 Sep 5.0 00:26:04 10° N 00:27:24 11° NNE 00:27:43 11° NNE visible
23 Sep 3.8 20:29:56 10° WSW 20:34:38 33° NW 20:39:38 10° NNE visible
23 Sep 4.9 22:19:13 10° NW 22:21:14 12° NNW 22:23:17 10° N visible
24 Sep 5.0 00:07:35 10° N 00:08:46 11° N 00:09:03 11° NNE visible
24 Sep 3.7 20:11:18 10° WSW 20:16:03 34° NW 20:21:05 10° NNE visible
24 Sep 4.9 22:00:28 10° NW 22:02:35 12° NNW 22:04:46 10° N visible
24 Sep 5.0 23:49:07 10° N 23:50:07 10° N 23:50:32 10° NNE visible
25 Sep 3.6 19:52:40 10° WSW 19:57:27 36° NW 20:02:33 10° NNE visible
25 Sep 4.8 21:41:42 10° NW 21:43:57 12° NNW 21:46:15 10° N visible
25 Sep 5.0 23:30:39 10° N 23:31:28 10° N 23:32:05 10° NNE visible
26 Sep 3.5 19:34:02 10° WSW 19:38:52 37° NW 19:44:00 10° NNE visible
26 Sep 4.8 21:22:57 10° NW 21:25:19 13° NNW 21:27:44 10° N visible
26 Sep 4.9 23:12:14 10° N 23:12:49 10° N 23:13:25 10° NNE visible
27 Sep 4.7 21:04:13 10° NW 21:06:41 13° NNW 21:09:13 10° N visible
27 Sep 4.9 22:53:57 10° N 22:54:11 10° N 22:54:24 10° N visible
28 Sep 5.2 00:36:48 10° NNW 00:36:55 10° NNW 00:36:55 10° NNW visible
28 Sep 4.7 20:45:28 10° NW 20:48:03 13° NNW 20:50:41 10° N visible
29 Sep 5.1 00:18:16 10° NNW 00:18:36 11° NNW 00:18:36 11° NNW visible
29 Sep 4.6 20:26:43 10° NW 20:29:24 14° NNW 20:32:10 10° N visible
29 Sep 5.0 23:59:44 10° NNW 00:00:19 12° NNW 00:00:19 12° NNW visible
30 Sep 4.6 20:07:59 10° NW 20:10:46 14° NNW 20:13:38 10° N visible
30 Sep 4.9 23:41:12 10° NNW 23:42:03 13° N 23:42:03 13° N visible
01 Oct 4.6 19:49:15 10° NW 19:52:08 14° NNW 19:55:06 10° N visible
01 Oct 4.8 23:22:40 10° NNW 23:23:48 14° N 23:23:48 14° N visible
